www.pogodaiklimat.ru

Погода и климат >> Архив погоды >> Индонезия >> Панкалпинанг


ПОГОДА в Панкалпинанге

  • Прогноз погоды в Панкалпинанге
  • Монитор погоды в Панкалпинанге

АРХИВ ПОГОДЫ в Панкалпинанге

Время (UTC), дата Ветер
(напр.,м/с)
 
Видим.   Явления Облачность Т
(С)
Тd
(С)
f
(%)
Тe
(С)
Тes
(С)
Комфортность P
(гПа)
Po
(гПа)
Тmin
(С)
Tmax
(С)
R
(мм)
R24
(мм)
S
(см)
15 11.04 З 1 7000 м 10/5 420 м
[Cb cap Ac As Cs]
+26.3 +24.6 90 +37 +37 очень
душно
1009.7 1005.2
18 11.04 З 1 7000 м 9/4 480 м
[Cu med, cong Ac As Cs]
+25.4 +24.5 95 +36 +36 очень
душно
1008.9 1004.4
21 11.04 З 1 7000 м 9/4 480 м
[Cu med, cong Ac As Cs]
+25.1 +24.1 94 +35 +35 очень
душно
1008.6 1004.1
00 12.04 З 2 7000 м в посл. час дождь 10/4 480 м
[Cu med, cong Ac As Cs]
+24.4 +23.8 96 +33 +34 очень
душно
1009.9 1005.8 +23.4 2
03 12.04 С 1 10 км 10/4 480 м
[Cu med, cong Ac As Cs]
+25.8 +23.7 88 +35 +41 очень
душно
1011.6 1007.5
06 12.04 ЮВ 2 9000 м в посл. час дождь 10/4 480 м
[Cu med, cong Ac As Cs]
+27.4 +25.7 90 +40 +46 очень
душно
1009.6 1005.5 0.3
09 12.04 ЮВ 1 10 км 10/4 480 м
[Cu hum As trans Cs]
+29.6 +25.2 77 +43 +45 опасность
перегрева
1007.8 1003.7
12 12.04 ЮВ 2 8000 м 10/4 480 м
[Cu hum As trans Cs]
+27.4 +25.5 89 +40 +40 очень
душно
1008.4 1004.3 +32.4
15 12.04 ЮВ 1 7000 м 10/4 480 м
[Cu hum As trans Cs]
+26.6 +25.3 93 +39 +39 очень
душно
1010.7 1006.6
18 12.04 ЮВ 2 7000 м 10/4 480 м
[Cu hum As trans Cs]
+25.4 +24.6 95 +36 +36 очень
душно
1009.6 1005.5
21 12.04 ЮЗ 1 7000 м 10/3 480 м
[Cu hum As trans Cs]
+24.9 +24.1 95 +34 +34 очень
душно
1009.3 1005.2
00 13.04 В 1 7000 м 10/4 480 м
[Cu hum Ac As Cs]
+25.6 +24.8 95 +36 +37 очень
душно
1010.2 1006.1 +23.8 0.3
03 13.04 Ю 1 7000 м 9/4 480 м
[Cu hum Ac As Cs]
+29.2 +24.9 78 +42 +49 опасность
перегрева
1011.3 1007.2
06 13.04 В 3 10 км 9/4 480 м
[Cu hum Ac As Cs]
+31.8 +23.6 62 +43 +49 опасность
перегрева
1009.3 1005.2
09 13.04 В 6 10 км 9/4 480 м
[Cu hum Ac As Cs]
+30.8 +23.5 65 +42 +42 опасность
перегрева
1008.7 1004.6
12 13.04 З 2 8000 м 10/5 480 м
[Cu med, cong Ac As Cs]
+26.4 +23.7 85 +36 +36 очень
душно
1010.0 1005.9 +32.2
15 13.04 Ю 1 7000 м 9/4 480 м
[Cu hum As trans Cs]
+26.2 +24.2 89 +36 +36 очень
душно
1011.3 1007.2
18 13.04 Ю 1 7000 м 9/4 480 м
[Cu hum As trans Cs]
+26.8 +24.9 89 +38 +38 очень
душно
1010.3 1006.2
21 13.04 ЮЗ 1 6000 м 10/4 480 м
[Cu hum As trans Cs]
+26.2 +24.7 91 +37 +37 очень
душно
1009.4 1005.3
03 14.04 В 1 10 км 10/6 420 м
[Cb cap Ac As Cs]
+30.8 +25.0 71 +44 +48 опасность
перегрева
1012.0 1007.6
06 14.04 ЮВ 7 10 км 10/6 420 м
[Cb cap Ac As Cs]
+31.0 +25.5 73 +46 +47 опасность
перегрева
1009.7 1005.2
09 14.04 СВ 4 10 км {гроза} 10/5 420 м
[Cb cap Ac As Cs]
+29.4 +25.0 77 +42 +43 опасность
перегрева
1007.9 1003.8
12 14.04 Ю 2 7000 м {гроза} 10/4 480 м
[Cu hum Ac As Cs]
+27.6 +24.6 84 +39 +39 очень
душно
1008.9 1004.8 +33.0
15 14.04 ЮЗ 2 7000 м 10/4 480 м
[Cu hum Ac As Cs]
+26.6 +24.5 88 +37 +37 очень
душно
1012.2 1008.1
18 14.04 Ю 1 7000 м 10/4 480 м
[Cu hum Ac As Cs]
+26.4 +24.4 89 +37 +37 очень
душно
1010.5 1006.4
21 14.04 ЮЗ 1 7000 м 10/4 480 м
[Cu hum Ac As Cs]
+25.8 +24.4 92 +36 +36 очень
душно
1008.7 1004.6
00 15.04 ЮЗ 1 7000 м 8/3 480 м
[Cu med, cong Ac trans Cs]
+26.3 +24.5 90 +37 +38 очень
душно
1010.1 1006.0 +24.5
03 15.04 С 1 10 км 8/4 480 м
[Cu med, cong As trans Cs]
+31.1 +25.5 72 +45 +53 опасность
перегрева
1011.2 1007.1
06 15.04 СЗ 2 10 км гроза без осадков 6/4 450 м
[Cb cap As trans Ci fib]
+31.9 +25.6 69 +46 +57 опасность
перегрева
1009.2 1005.1
09 15.04 СВ 5 10 км {гроза} 8/4 600 м
[Cu med, cong Ac trans Ci sp]
+31.3 +24.8 68 +44 +45 опасность
перегрева
1007.8 1003.3
12 15.04 СВ 1 7000 м {гроза} 9/4 480 м
[Cu med, cong Ac trans Cs]
+28.8 +24.5 78 +41 +41 опасность
перегрева
1008.9 1004.5 +32.1
15 15.04 З 1 7000 м 9/4 480 м
[Cu hum Ac trans Cs]
+26.8 +24.7 88 +38 +38 очень
душно
1010.7 1006.6
18 15.04 Ю 1 7000 м 10/4 480 м
[Cu hum Ac trans Cs]
+26.2 +24.7 91 +37 +37 очень
душно
1009.5 1005.4
21 15.04 З 1 7000 м 10/4 480 м
[Cu hum Ac trans Cs]
+25.2 +24.2 94 +35 +35 очень
душно
1008.7 1004.6
00 16.04 З 1 5000 м дымка 6/3 480 м
[Cu med, cong As op Cs]
+26.1 +24.9 93 +37 +38 очень
душно
1010.9 1006.8 +24.5
03 16.04 З 1 10 км 10/3 480 м
[Cu med, cong As trans Cs]
+30.9 +25.1 71 +44 +51 опасность
перегрева
1011.6 1007.5
06 16.04 В 4 10 км 6/3 480 м
[Cu med, cong As trans Cs]
+32.6 +24.5 62 +45 +52 опасность
перегрева
1009.2 1005.1
09 16.04 З 2 10 км 9/5 450 м
[Cb cap Ac As Ci fib]
+28.7 +24.5 78 +41 +42 опасность
перегрева
1007.7 1003.6
12 16.04 ЮЗ 1 8000 м {гроза} 9/4 480 м
[Cu hum As trans Cs]
+27.0 +25.1 89 +39 +39 очень
душно
1010.1 1006.0 +32.7
15 16.04 Ю 1 6000 м 8/4 480 м
[Cu med, cong Ac As Cs]
+26.7 +23.7 84 +37 +37 очень
душно
1012.2 1007.6
18 16.04 ЮЗ 1 6000 м 8/4 480 м
[Cu med, cong Ac As Cs]
+26.2 +23.9 87 +36 +36 очень
душно
1011.2 1006.7
21 16.04 СЗ 2 6000 м 9/4 480 м
[Cu med, cong Ac As Cs]
+24.8 +23.6 93 +34 +34 очень
душно
1010.5 1005.9
00 17.04 З 2 9000 м 8/4 480 м
[Cu hum As trans Ci fib]
+25.0 +23.8 93 +34 +35 очень
душно
1011.3 1007.2 +24.3
03 17.04 ЮВ 3 10 км 8/4 480 м
[Cu hum As trans Ci fib]
+31.0 +24.1 67 +43 +49 опасность
перегрева
1011.7 1007.5
06 17.04 В 4 10 км 8/4 480 м
[Cu hum As trans Ci fib]
+32.0 +23.3 60 +43 +48 опасность
перегрева
1009.7 1005.6
09 17.04 СВ 4 10 км 8/4 480 м
[Cu med, cong Ac trans Ci fib]
+31.3 +24.9 69 +45 +46 опасность
перегрева
1007.2 1003.1
12 17.04 В 2 9000 м 6/4 270 м
[Cu med, cong Ac trans Cs]
+28.2 +24.7 81 +40 +40 очень
душно
1009.2 1005.1 +32.8
15 17.04 Ю 1 7000 м 6/3 480 м
[Cu hum Ac trans Cs]
+27.1 +25.0 88 +39 +39 очень
душно
1010.4 1006.3
18 17.04 ЮЗ 1 7000 м 6/3 480 м
[Cu hum Ac trans Cs]
+26.0 +24.6 92 +37 +37 очень
душно
1008.5 1004.5
21 17.04 З 1 7000 м 6/3 480 м
[Cu hum Ac trans Cs]
+25.3 +24.2 94 +35 +35 очень
душно
1008.1 1004.0
00 18.04 ЮЗ 1 5000 м 8/5 480 м
[Cu med, cong Ac trans Cs]
+25.6 +24.7 95 +36 +37 очень
душно
1009.9 1005.8 +25.0
03 18.04 СВ 2 10 км 9/5 450 м
[Cb calv Ac trans Cs]
+29.2 +24.6 76 +41 +47 опасность
перегрева
1011.0 1006.9
06 18.04 СВ 4 10 км {дождь} 9/4 480 м
[Cu hum Ac As Cs]
+31.6 +26.3 74 +48 +53 опасность
перегрева
1008.8 1004.7 0.0
09 18.04 Ю 3 10 км 9/4 480 м
[Cu med, cong Ac As Cs]
+28.0 +24.1 79 +39 +40 очень
душно
1007.4 1005.6

 

Местоположение метеостанции Панкалпинанг (Индонезия): широта -2.17 долгота 106.13 высота над уровнем моря 33 м.

В архиве по умолчанию представлена погода в Панкалпинанге за последнюю неделю. Архивные данные за месяц целиком и за предыдущие месяцы, начиная с января 2011 года, Вы можете получить, выбрав интересующий диапазон дат из раскрывающегося списка и нажав кнопку "Ввод!".


*Определитесь, кто Вы:
робот инопланетянин человек

Внимание! Время в таблицах - всемирное. Для получения местного времени необходимо прибавить поправку, которая равна 7 ч.

Смотрите также архив погоды в соседних городах и на ближайших метеорологических станциях:

Погода в Палембанге (Индонезия) (178 км)
Погода в Танджунгпандане (Индонезия) (191 км)
Погода в Аэропорту Дабо (Индонезия) (255 км)
Погода в Джамби (Индонезия) (282 км)
Погода в Танджунгкаранге (Индонезия) (343 км)
Погода в Танджунгпинанге (Индонезия) (387 км)
Погода в Кетапанге (Индонезия) (427 км)
Погода в Понтианаке (Индонезия) (427 км)
Погода в Аэропорту Ханга Надима (Индонезия) (429 км)
Погода в Серанге (Индонезия) (439 км)

Пояснения к столбцам:

Ветер - указаны скорость ветра в м/с - средняя за 10 мин, порывы в срок и между сроками (в фигурных скобках) и направление, откуда дует ветер: С - северный, СВ - северо-восточный, В - восточный, ЮВ - юго-восточный, Ю - южный, ЮЗ - юго-западный, З - западный, СЗ - северо-западный.
Видимость - горизонтальная дальность видимости в метрах или километрах. При видимости от 1 до 10 км при отсутствии осадков обычно наблюдается дымка, при ухудшении видимости до 1 км и менее - туман. В сухую погоду видимость может ухудшаться дымом, пылью или мглою.
Явления - указаны атмосферные явления, наблюдавшиеся в срок или в последний час перед сроком; фигурными скобками обозначены явления, наблюдавшиеся между сроками (за 1-3 часа до срока); квадратными скобками обозначены град или гололедные отложения с указанием их диаметра в мм.
Облачность - указаны через наклонную черту общая и нижняя облачность в баллах и высота нижней границы облаков в метрах; квадратными скобками обозначены формы облаков: Ci - перистые, Cs - перисто-слоистые, Cc - перисто-кучевые, Ac - высококучевые, As - высокослоистые, Sc - слоисто-кучевые, Ns - слоисто-дождевые, Cu - кучевые, Cb - кучево-дождевые. Подробнее классификацию облаков см. в Атласе облаков (PDF).
T - Температура воздуха - температура, измеренная на высоте 2 м над землей.
Td - Температура точки росы - температура, при понижении до которой содержащийся в воздухе водяной пар достигнет насыщения.
f - Относительная влажность воздуха - влажноcть воздуха, измеренная на высоте 2 м над землей.
Te - Эффективная температура - температура, которую ощущает одетый по сезону человек в тени. Характеристика душности погоды. При расчете учитывается влияние влажности воздуха и скорости ветра на теплоощущения человека.
Tes - Эффективная температура на солнце - температура, которую ощущает человек, с поправкой на солнечный нагрев. Характеристика знойности погоды. Зависит от высоты солнца над горизонтом, облачности и скорости ветра. Ночью, в пасмурную погоду, а также при ветре 12 м/с и более поправка равна нулю.
P - Атмосферное давление - приведенное к уровню моря атмосферное давление.
Po - Атмосферное давление - измеренное на уровне метеостанции атмосферное давление.
Tmin - Минимальная температура - минимум температуры воздуха на высоте 2 м над землей.
Tmax - Максимальная температура - максимум температуры воздуха на высоте 2 м над землей.
R - Количество осадков - Количество выпавших осадков за период времени, мм. При наведении курсора мыши на число - период времени, за который выпало указанное количество осадков.
R24 - Количество осадков - Количество выпавших осадков за 24 часа, мм.
S - Снежный покров - Высота снежного покрова, см. При наведении курсора мыши на число - состояние снежного покрова и степень покрытия местности в баллах.